Date,TemperatureHighF,TemperatureAvgF,TemperatureLowF,DewpointHighF,DewpointAvgF,DewpointLowF,HumidityHigh,HumidityAvg,HumidityLow,PressureMaxIn,PressureMinIn,WindSpeedMaxMPH,WindSpeedAvgMPH,GustSpeedMaxMPH,PrecipitationSumIn
2013-1-1,36.3,29.8,20.7,34.8,25.8,14.2,97,84,72,30.27,30.03,7,3,11,0.00
2013-1-2,37.6,25.4,16.6,20.2,14.2,10.5,77,62,35,30.27,30.15,7,1,8,0.00
2013-1-3,47.6,30.8,21.4,25.5,18.6,14.9,80,60,34,30.39,30.21,8,2,11,0.00
2013-1-4,50.2,33.3,21.7,22.9,17.8,13.7,75,54,29,30.42,30.30,9,2,11,0.00
2013-1-5,42.3,35.0,25.2,28.3,23.6,15.0,74,62,49,30.30,30.15,8,2,12,0.00
2013-1-6,48.0,33.4,23.5,28.3,19.9,12.7,75,58,32,30.36,30.15,9,3,14,0.00
2013-1-7,56.3,34.9,21.0,25.8,17.8,12.2,69,51,29,30.36,30.09,6,1,11,0.00
2013-1-8,57.8,42.6,28.0,43.2,26.7,16.6,84,54,36,30.21,30.03,5,1,9,0.00
2013-1-9,57.1,49.3,43.7,46.4,38.9,29.6,97,70,45,30.39,30.21,5,2,12,0.00
2013-1-10,49.5,45.3,43.3,40.9,35.3,29.0,88,70,45,30.30,30.12,9,4,15,0.00
2013-2-13,50.9,39.3,33.3,33.8,29.2,23.7,93,69,40,30.00,29.91,9,3,14,0.00
2013-2-14,57.7,45.3,33.6,29.8,23.8,18.7,70,43,28,30.15,29.94,9,4,15,0.00
2013-2-15,43.7,37.4,32.2,24.3,21.4,19.0,64,52,44,30.24,30.15,9,5,16,0.00
2013-2-27,35.5,33.4,31.9,29.0,25.5,22.3,87,73,62,30.00,29.83,13,4,20,0.00
2013-2-28,34.0,31.8,29.7,25.0,22.9,20.3,75,67,60,30.15,29.97,8,1,13,0.00
2013-3-1,31.6,29.6,27.9,24.5,22.2,19.4,78,71,60,30.24,30.09,0,0,0,0.00
2013-3-2,37.9,29.2,23.0,22.9,16.6,12.9,78,58,40,30.30,30.15,8,1,12,0.00
2013-3-3,60.5,39.3,22.6,25.6,20.0,14.0,72,48,25,30.21,29.85,7,3,13,0.00
2013-3-4,69.6,49.8,38.1,39.4,30.2,19.3,73,48,29,29.85,29.65,12,4,23,0.00
2013-3-5,43.8,37.4,30.4,32.7,20.5,14.3,87,52,35,30.27,29.83,15,9,30,0.00
2013-3-6,50.8,35.9,26.4,20.4,16.3,12.7,54,44,28,30.36,30.24,10,4,20,0.00
2013-3-7,66.7,46.4,32.5,27.8,21.7,17.4,57,40,20,30.30,30.15,7,3,11,0.00
2013-3-8,61.9,47.9,36.7,32.4,27.2,22.8,63,46,31,30.30,30.09,8,4,14,0.00
2013-3-9,74.1,56.1,45.5,55.0,39.1,31.5,91,55,29,30.09,29.77,9,4,16,0.00
2013-3-10,59.8,45.2,32.7,56.4,41.7,29.8,99,88,57,29.91,29.68,11,6,18,0.00
2013-3-11,45.6,34.2,28.4,29.8,22.6,16.9,89,64,34,30.03,29.88,12,6,20,0.00
2013-3-12,56.4,40.1,28.2,25.7,20.6,13.8,75,48,26,30.30,30.03,11,4,20,0.00
2013-3-13,53.1,38.2,27.9,20.8,17.5,15.3,57,44,27,30.45,30.27,8,4,13,0.00
2013-3-14,73.2,50.1,30.6,32.1,25.3,17.8,61,41,22,30.36,30.09,15,4,24,0.00
2013-3-15,70.8,48.8,40.8,42.4,35.0,30.2,78,60,31,30.12,29.97,10,2,13,0.00
2013-4-1,59.2,46.8,39.4,35.6,29.7,20.7,77,53,36,30.24,30.00,8,4,13,0.00
2013-4-2,43.3,39.9,36.0,28.7,25.1,21.3,70,55,47,30.30,30.24,6,2,10,0.00
2013-4-3,60.9,44.2,32.0,28.9,22.5,16.8,70,45,25,30.30,30.18,7,2,14,0.00
2013-4-4,58.1,49.0,39.3,29.3,24.2,21.0,57,39,26,30.18,30.06,7,2,11,0.00
2013-4-5,75.8,52.0,32.4,36.1,28.3,21.4,73,44,20,30.21,30.03,7,1,10,0.00
2013-4-6,75.4,62.0,51.3,39.8,33.8,27.3,49,35,23,30.03,29.80,13,4,20,0.00
2013-4-7,80.5,65.3,49.3,54.4,45.1,38.1,79,50,27,30.00,29.80,7,3,11,0.00
2013-4-8,76.1,66.9,59.5,55.4,52.1,48.1,73,60,45,29.91,29.80,8,3,13,0.00
2013-4-9,83.4,69.9,61.2,59.5,53.9,47.7,75,59,35,29.91,29.80,7,3,14,0.00
2013-4-10,69.3,55.4,39.4,63.8,50.0,38.5,99,83,56,29.94,29.80,10,4,20,0.00
2013-4-11,52.9,41.9,35.1,39.1,29.6,23.7,99,65,36,29.91,29.80,11,5,17,0.00
2013-4-12,37.8,36.4,34.5,29.6,27.7,26.2,74,71,65,29.91,29.83,4,1,10,0.00
2013-4-18,64.2,46.3,38.8,64.2,39.8,24.5,100,79,56,30.00,29.71,12,7,20,0.00
2013-4-19,41.7,37.2,34.7,24.3,21.0,18.5,55,52,41,30.12,29.97,13,7,22,0.00
2013-4-25,75.5,54.7,32.7,34.4,29.4,25.9,78,44,18,30.39,30.27,8,2,20,0.00
2013-5-25,88.7,78.4,67.2,59.1,56.3,49.6,63,47,34,30.36,30.21,4,2,20,0.00
2013-5-26,87.3,75.2,62.4,64.6,58.6,53.6,83,59,32,30.27,30.15,5,2,9,0.00
2013-5-27,86.9,75.9,66.4,66.6,61.2,57.9,83,62,42,30.15,29.91,7,2,12,0.00
2013-5-28,86.5,76.1,69.8,66.1,61.3,57.1,81,61,41,30.06,29.91,5,2,10,0.00
2013-5-29,86.6,76.2,68.2,65.7,60.2,55.8,81,60,38,30.09,29.91,5,2,11,0.00
2013-5-30,84.7,71.7,63.3,67.5,61.5,53.1,100,73,38,30.03,29.91,8,2,14,0.00
2013-5-31,85.4,74.1,65.8,71.5,67.6,58.7,100,82,55,30.00,29.85,11,2,31,0.00
2013-6-1,77.4,69.0,63.1,67.8,61.2,50.5,100,80,43,30.15,29.85,9,3,15,0.00
2013-6-2,64.7,61.5,56.4,56.6,53.4,51.1,89,75,64,30.24,30.12,6,2,11,0.00
2013-6-3,83.3,64.3,49.6,58.3,51.5,46.9,100,68,33,30.24,30.06,4,1,7,0.00
2013-6-4,78.5,67.7,60.4,62.5,57.4,53.2,83,70,49,30.18,30.09,4,1,7,0.00
2013-6-5,77.7,67.0,61.2,66.9,61.1,57.0,93,82,61,30.18,30.00,8,1,18,0.00
2013-6-6,73.6,65.5,59.2,64.5,59.1,54.5,100,81,53,30.12,30.03,7,1,12,0.00
2013-6-7,77.9,65.2,54.7,57.4,51.2,44.6,96,65,32,30.15,30.06,7,2,13,0.00
2013-6-8,83.0,66.7,51.8,59.0,51.5,46.9,90,62,31,30.12,30.00,3,1,6,0.00
2013-6-9,83.0,69.6,62.3,64.6,56.5,49.9,93,66,34,30.09,29.97,7,1,14,0.00
2013-6-10,93.8,75.9,61.0,66.9,60.3,55.2,89,61,37,30.09,29.97,6,2,13,0.00
2013-6-11,94.7,80.9,66.9,68.2,61.3,50.0,91,57,23,30.15,30.06,6,2,13,0.00
2013-6-12,79.1,75.8,72.6,63.6,62.6,61.9,71,64,58,30.12,30.09,2,0,4,0.00
2013-6-23,91.0,83.7,79.7,63.9,62.2,60.9,59,49,37,30.18,30.09,2,1,4,0.00
2013-6-24,95.3,83.4,72.0,69.6,64.0,59.0,81,54,32,30.24,30.09,4,1,9,0.00
2013-6-25,92.8,82.1,72.0,69.9,63.2,57.9,80,55,32,30.12,29.97,4,2,11,0.00
2013-6-26,95.8,84.8,74.5,71.4,65.8,61.7,78,55,37,30.06,29.97,6,2,11,0.00
2013-6-27,99.3,86.2,74.7,75.1,70.7,66.0,88,62,36,30.15,30.00,6,1,10,0.00
2013-6-28,90.3,80.0,70.6,73.7,62.4,50.3,97,60,29,30.09,29.97,18,3,37,0.00
2013-6-29,86.7,76.2,66.9,56.7,50.2,41.0,68,43,21,30.03,29.91,11,4,20,0.00
2013-6-30,81.0,70.4,63.9,61.7,55.2,50.0,81,60,37,30.12,29.97,7,4,13,0.00
2013-7-1,82.4,71.1,62.6,58.8,51.8,45.7,82,54,30,30.18,30.09,8,3,15,0.00
2013-7-2,83.9,69.6,58.1,53.0,48.5,41.7,78,51,23,30.24,30.15,8,2,14,0.00
2013-7-3,88.2,70.6,57.4,58.3,52.0,47.4,83,57,26,30.27,30.15,6,1,14,0.00
2013-7-4,87.5,71.6,58.8,63.3,55.3,47.4,92,62,26,30.24,30.12,4,1,8,0.00
2013-7-5,91.8,75.1,60.4,61.4,55.3,48.2,84,55,23,30.21,30.09,3,1,6,0.00
2013-7-6,94.4,77.2,65.1,64.4,57.7,50.1,82,55,25,30.18,30.06,3,1,6,0.00
2013-7-7,96.3,80.7,67.6,66.6,58.9,47.2,80,51,21,30.21,30.09,3,1,5,0.00
2013-7-8,97.9,81.3,69.6,69.4,62.5,58.5,81,56,28,30.24,30.15,3,0,5,0.00
2013-7-9,95.6,82.6,71.4,68.9,63.6,56.4,80,56,28,30.21,30.09,4,1,8,0.00
2013-7-10,82.8,78.2,76.7,70.2,65.8,64.6,68,66,62,30.15,30.09,2,0,2,0.00
2013-7-11,92.5,84.3,77.3,70.5,64.3,56.4,75,54,31,30.18,28.88,5,2,8,0.00
2013-7-12,80.6,72.8,68.0,52.1,51.2,49.8,55,47,36,28.88,28.82,1,-270,2,0.00
2013-7-13,88.2,73.7,61.5,57.8,53.6,48.3,73,51,31,30.06,28.82,10,-10,18,0.04
2013-7-14,93.5,76.9,63.5,62.7,54.3,47.2,80,50,21,30.15,30.03,4,1,8,0.00
2013-7-15,92.6,78.8,68.9,68.8,61.9,53.3,84,59,33,30.24,30.15,4,1,7,0.00
2013-7-16,93.4,77.7,69.3,74.6,68.3,61.4,98,75,35,30.33,30.21,4,0,6,0.00
2013-7-17,96.0,81.9,70.0,71.8,65.4,57.7,92,62,29,30.39,30.24,3,1,5,0.00
2013-7-18,98.8,83.8,70.7,67.2,61.8,54.9,79,52,26,30.30,30.09,4,1,6,0.00
2013-7-19,96.7,82.5,70.9,68.3,62.5,56.2,80,54,27,30.12,29.97,5,1,9,0.00
2013-7-20,93.7,78.6,70.3,68.9,64.4,56.6,87,64,36,30.06,29.91,6,1,11,0.00
2013-7-21,84.6,76.8,70.7,72.3,68.8,65.6,95,77,56,30.03,29.91,4,1,8,0.00
2013-7-22,87.1,77.9,67.0,72.9,64.7,57.8,90,66,38,30.03,29.91,6,1,11,0.00
2013-7-23,96.5,83.2,73.7,71.0,65.4,56.7,87,57,36,29.97,29.85,7,2,13,0.00
2013-7-24,89.3,78.8,71.9,67.3,61.8,52.7,82,58,32,30.09,29.94,7,2,13,0.66
2013-7-25,90.5,76.1,63.1,61.3,57.0,51.7,84,55,29,30.21,30.09,4,1,6,0.00
2013-7-26,73.7,70.5,66.7,70.5,64.5,57.9,97,82,59,30.12,30.06,3,0,6,1.00
2013-7-27,78.4,70.4,65.1,67.4,59.1,51.2,100,71,40,30.12,30.03,6,2,10,0.00
2013-7-28,74.9,68.8,63.5,64.2,60.0,55.9,92,75,56,30.12,30.06,3,0,5,0.00
2013-7-29,85.9,74.9,66.4,69.7,65.8,61.3,93,75,54,30.21,30.06,3,1,7,0.00
2013-7-30,84.3,75.6,70.0,75.6,72.5,68.6,100,91,71,30.12,30.03,5,0,8,0.00
2013-7-31,87.7,78.7,71.8,75.8,69.6,61.3,100,76,43,30.15,30.06,7,2,12,0.00
2013-8-1,90.3,77.0,65.1,68.9,62.0,55.8,97,64,33,30.21,30.06,3,-3,6,0.00
2013-8-2,90.7,78.4,69.6,72.4,67.1,62.6,86,69,49,30.09,29.94,3,-133,6,0.00
2013-8-3,89.8,78.5,69.2,73.9,70.3,65.8,100,78,51,30.18,29.94,8,1,24,0.00
2013-8-4,77.3,73.9,71.2,74.5,71.2,68.5,99,91,80,30.24,30.09,4,0,9,0.98
2013-8-5,89.4,78.1,71.8,76.0,72.2,67.7,97,83,63,30.12,29.94,6,1,10,0.13
2013-8-6,86.5,76.9,71.4,76.2,71.9,67.0,100,85,68,30.03,29.88,6,1,13,0.49
2013-8-7,87.1,77.6,71.5,75.8,71.4,67.7,97,82,57,30.06,29.88,9,1,17,0.00
2013-8-8,86.2,77.4,71.1,74.7,70.4,65.6,99,80,51,30.06,29.91,4,1,8,0.00
2013-8-9,83.4,76.8,72.9,72.9,68.4,64.8,93,76,55,30.12,29.97,5,1,9,0.00
2013-8-10,87.2,76.4,68.9,67.3,64.0,57.6,90,68,38,30.21,30.09,4,1,9,0.00
2013-8-11,87.8,77.3,69.3,70.2,67.2,63.4,90,72,53,30.21,30.09,3,1,6,0.00
2013-8-12,83.6,76.1,71.3,74.3,68.8,64.1,94,79,54,30.12,30.03,9,1,12,0.00
2013-8-13,84.6,75.1,68.4,72.2,62.8,54.6,97,69,40,30.15,30.06,6,1,14,0.00
2013-8-14,69.0,66.9,64.9,59.2,58.1,57.3,79,74,70,30.18,30.15,2,0,6,0.00
2013-12-11,29.8,21.7,14.9,6.7,2.9,-0.5,50,44,36,30.56,30.45,0,-932,0,0.00
2013-12-12,48.8,25.6,9.7,16.3,6.2,-4.4,59,45,27,30.53,30.21,0,-999,0,0.00
2013-12-13,36.5,32.2,24.4,31.3,23.1,8.9,88,70,51,30.21,29.80,0,-999,0,0.00
2013-12-14,35.0,31.7,27.5,33.5,27.2,20.3,97,83,74,30.15,29.77,0,-999,0,0.00
2013-12-15,51.0,33.1,20.1,27.1,21.2,13.5,78,63,38,30.18,30.03,6,-318,7,0.00
2013-12-16,60.2,45.0,34.1,40.8,29.2,24.1,83,55,34,30.09,29.97,8,2,15,0.00
2013-12-17,56.5,38.3,27.9,33.0,23.8,17.9,80,59,29,30.27,30.06,9,1,16,0.00